This is the latest recevied weather packets stored in our database for station/object WC4PEM-13. If no packets are shown the sender has not sent any weather packets the latest 10 day(s).
| Time | Temp. | Humidity | Pressure | Rain* | Wind** | Luminosity | Snow |
|---|---|---|---|---|---|---|---|
| 1777660958 | 31.67° C | 53% | 1010.8 hPa | 0 mm | - | - | - |
| 1777660658 | 31.67° C | 54% | 1011 hPa | 0 mm | - | - | - |
| 1777660358 | 31.67° C | 55% | 1011 hPa | 0 mm | - | - | - |
| 1777660058 | 32.22° C | 56% | 1011.1 hPa | 0 mm | - | - | - |
| 1777659758 | 32.22° C | 54% | 1011.1 hPa | 0 mm | - | - | - |
| 1777659458 | 32.22° C | 53% | 1011.2 hPa | 0 mm | - | - | - |
| 1777659158 | 32.22° C | 52% | 1011.3 hPa | 0 mm | - | - | - |
| 1777658858 | 32.22° C | 53% | 1011.4 hPa | 0 mm | - | - | - |
| 1777658558 | 32.22° C | 53% | 1011.3 hPa | 0 mm | - | - | - |
| 1777658258 | 32.22° C | 52% | 1011.5 hPa | 0 mm | - | - | - |
| 1777657958 | 32.22° C | 59% | 1011.5 hPa | 0 mm | - | - | - |
| 1777657658 | 31.67° C | 56% | 1011.7 hPa | 0 mm | - | - | - |
| 1777657358 | 31.67° C | 57% | 1011.7 hPa | 0 mm | - | - | - |
| 1777657058 | 31.67° C | 54% | 1011.7 hPa | 0 mm | - | - | - |
| 1777656758 | 31.11° C | 55% | 1011.8 hPa | 0 mm | - | - | - |
| 1777656458 | 31.11° C | 56% | 1011.8 hPa | 0 mm | - | - | - |
| 1777656158 | 31.11° C | 58% | 1011.9 hPa | 0 mm | - | - | - |
| 1777655858 | 30.56° C | 60% | 1011.8 hPa | 0 mm | - | - | - |
| 1777655558 | 30.56° C | 56% | 1011.9 hPa | 0 mm | - | - | - |
| 1777655258 | 30.56° C | 61% | 1011.9 hPa | 0 mm | - | - | - |
| 1777654958 | 30° C | 62% | 1012 hPa | 0 mm | - | - | - |
| 1777654658 | 30° C | 62% | 1012 hPa | 0 mm | - | - | - |
| 1777654358 | 30° C | 63% | 1011.9 hPa | 0 mm | - | - | - |
| 1777654058 | 30° C | 63% | 1012.1 hPa | 0 mm | - | - | - |
| 1777653758 | 30° C | 65% | 1012.2 hPa | 0 mm | - | - | - |
* Rain latest hour (hover to see other rain measurements)
** Current wind speed in m/s (hover to see current wind gust speed)